Find Starlink 31313

NORAD ID: 59088 Int'l Des: 2024-041 Owner: SPXS Country: US Constellation: starlink operational
LEOCIRCULAR

当前视图

正在加载3D地球...

About Starlink 31313

Starlink 31313 (NORAD 59088) is a starlink constellation satellite (v2 mini) launched Feb 29, 2024 by SPXS of US. It operates in LEO, CIRCULAR orbit with a mass of 730.00 kg.

关于 Starlink 31313

正在加载描述...

即将过境

Passes for default location (London). Set your location on the main map for personalized predictions.

高度历史

Loading altitude history...

两行轨道根数

1 59088U 24041Q 26168.14669030 .00000769 00000-0 37455-4 0 9993
2 59088 43.0025 108.8968 0000672 284.5630 75.5147 15.27582112129486
Epoch: Jun 17, 2026 • Age: 30 hours

当前状态

高度 485.6 km
速度 7.62 km/s
星下点 -14.81°S, 40.28°E
发射日期 Feb 29, 2024
运行时间 2.2 years
类型 internet

技术详情

分类 Payload
质量 730.00 kg
干质量 700.00 kg
总质量 730.00 kg
长度 0.30 m
直径 4.10 m
跨度 29.00 m
形状 Box + pan
制造商 SPXS
平台类型 Starlink V2M
阶段状态 In Orbit
所有者/国家 SPXS/US

Most Searched